sat.trackr.live / text

‹ back to catalog

STARLINK-30500

NORAD 58076 · 2023-160B

PAYLOAD ACTIVE UNKNOWN

§ Identity

Operator
Country
US
Launch date
2023-10-18
Launch site
AFETR
Launch vehicle
Mass (kg)
RCS (m²)

Purposes: comms

External: N2YO · Heavens-Above · Gunter

§ Orbital elements

Epoch: 2026-09-20T22:03:57.906144Z

Period
94.27 min
Inclination
43.0009°
Eccentricity
0.0000819
Mean motion
15.27568104 rev/d
Perigee alt
482.5 km
Apogee alt
483.6 km
Semi-major
6,861.2 km
B*
-2.6647e-5
RAAN
55.3300°
Arg perigee
253.3854°
Mean anomaly
106.6907°
Rev number
16,280

§ Raw data

STARLINK-305001 58076U 23160B   26263.91942021 -.00000995  00000+0 -26647-4 0  99982 58076  43.0009  55.3300 0000819 253.3854 106.6907 15.27568104162803

JSON: /api/v1/satellites/58076 · /tle

For live sub-satellite position, see the globe view (requires WebGL).

§ Visibility from observer

Set your observer location to see the next 7 days of passes ≥ 10°. The values pass through the URL so the page stays shareable.

No JS? Fill the form by hand. The geolocation button needs JavaScript.